Theta_e
323 323 322 319 319 321 319 317 319 319 319 319 318 319 320 322 326 327 333 336 334 335 340 343 344 346 348 351 349 348 350 350 349 349 348 348 348 347 345 343 342 340 340
322 322 321 320 321 321 319 318 317 319 318 317 318 318 318 318 320 324 326 326 327 330 335 338 341 344 345 347 347 348 349 350 350 349 348 347 346 347 347 345 344 342 342
322 322 321 321 322 322 320 321 320 320 319 317 319 318 318 318 319 320 320 320 321 326 330 335 337 342 342 343 346 348 348 349 350 349 348 348 347 346 345 347 345 345 344
320 318 316 316 318 320 319 320 319 318 318 317 316 319 318 318 318 318 319 319 321 321 326 332 339 340 340 342 343 344 345 347 348 348 348 347 347 345 345 344 347 346 346
317 315 314 314 315 315 316 317 318 317 317 317 317 318 318 316 316 316 317 318 319 322 326 334 336 336 337 337 340 341 342 344 345 347 347 347 348 347 346 345 345 346 345
317 315 314 314 314 314 314 314 313 314 315 316 315 315 314 314 315 315 315 316 317 319 327 333 333 334 336 338 339 338 337 338 343 346 346 346 346 347 346 346 344 344 346
316 315 313 313 313 311 312 313 312 312 312 313 311 309 311 312 313 313 315 314 319 324 328 331 331 332 332 333 333 337 340 340 340 343 344 344 346 347 346 345 345 344 344
316 316 313 312 312 310 311 311 312 311 311 312 309 309 303 306 310 313 313 314 316 320 324 325 327 327 328 326 330 335 339 339 337 340 339 341 344 346 346 345 344 343 342
315 314 313 312 311 310 308 309 309 310 308 311 312 309 302 300 305 309 312 313 314 320 321 321 323 326 327 327 332 333 333 334 336 338 337 338 340 343 347 346 344 342 341
313 313 312 311 310 309 309 310 312 311 311 308 309 311 310 309 303 301 308 311 313 314 318 319 319 323 325 327 330 332 334 336 334 335 338 337 337 343 345 345 343 341 340
311 311 311 311 309 309 311 312 310 309 309 308 307 307 308 308 307 305 301 306 312 315 317 317 319 324 325 327 327 329 329 330 330 333 337 340 340 340 345 343 340 339 336
308 309 310 309 310 310 310 311 312 309 308 308 308 308 307 306 305 304 304 305 306 310 316 318 320 322 322 325 328 326 327 327 327 329 331 334 337 336 337 338 337 336 334
306 307 308 309 310 311 311 311 310 309 308 306 306 306 308 307 308 307 305 304 305 309 312 317 319 320 321 322 325 327 327 325 323 324 326 328 330 331 331 331 331 330 329
305 308 309 310 310 311 310 310 308 307 307 306 305 307 307 308 308 307 305 303 302 305 309 312 317 318 319 321 322 322 320 321 319 319 320 322 324 326 326 326 325 324 323
306 309 309 309 309 309 309 308 307 307 307 307 306 306 305 306 307 308 307 307 304 302 304 311 311 314 315 316 317 316 316 318 317 316 317 317 318 319 318 318 318 317 317
307 307 308 308 309 309 309 308 307 308 307 307 307 306 306 306 307 308 307 308 308 306 304 310 311 312 314 314 316 313 314 315 315 314 314 314 314 315 314 315 314 314 313
307 307 307 308 307 307 308 307 307 307 306 306 307 306 305 307 306 307 308 308 308 308 305 308 311 311 309 308 308 310 311 310 311 312 312 312 311 311 311 311 311 311 311
307 307 307 307 307 307 308 307 306 307 306 306 306 306 306 308 308 307 309 309 308 310 309 305 306 305 305 307 307 306 306 307 306 309 309 308 308 307 307 306 306 306 306
307 307 306 306 307 307 307 307 307 307 307 306 306 306 306 306 308 309 309 308 310 312 310 305 303 305 304 304 303 305 305 304 306 308 307 307 306 305 304 303 303 303 303
305 306 306 307 307 308 307 307 307 307 307 306 306 305 307 307 307 307 310 310 311 308 306 303 302 302 302 304 303 300 299 302 299 300 303 305 306 306 305 304 304 302 302
306 307 307 307 307 307 307 306 307 306 305 304 306 308 310 311 313 313 312 310 309 306 304 302 301 300 300 300 298 300 298 297 297 296 296 296 297 299 300 301 303 303 302
306 306 306 306 306 306 304 306 307 305 304 303 304 307 309 309 310 311 313 312 310 306 304 302 300 299 300 300 300 299 295 293 291 299 295 294 297 295 298 300 301 301 300
306 306 306 306 304 306 302 302 305 304 304 303 304 306 308 307 307 311 310 310 310 309 308 305 301 301 300 302 302 302 301 298 296 296 296 292 295 294 297 300 300 299 300
304 305 306 304 304 305 301 300 302 305 306 307 306 306 307 305 305 310 311 310 310 310 309 308 306 305 306 306 306 306 302 300 299 300 301 294 296 294 296 298 300 299 299
304 305 304 304 303 302 298 296 302 306 306 306 304 302 307 308 301 303 310 308 308 308 308 306 305 303 301 301 305 303 296 297 298 302 304 298 298 296 296 296 298 297 298
303 304 304 304 302 301 298 296 302 306 304 304 303 302 300 302 299 302 310 308 306 307 307 306 305 304 305 305 305 305 301 299 301 301 304 301 300 300 297 299 299 299 298
Wind_Speed
4 3 3 3 3 3 2 3 3 2 3 4 3 3 4 3 5 2 2 9 12 14 14 14 12 13 15 16 12 9 17 19 20 20 20 19 18 17 18 17 16 16 15
3 4 4 4 3 3 3 3 3 3 2 3 2 3 4 4 4 5 4 4 9 14 14 14 12 11 12 14 13 12 13 17 20 21 22 22 21 22 20 19 18 18 16
5 4 3 3 4 4 5 3 2 1 3 3 4 4 2 5 3 7 6 5 6 9 15 16 14 11 7 7 12 14 13 17 21 22 23 23 23 23 22 19 20 20 18
4 4 3 3 4 4 3 3 2 3 3 3 2 4 3 2 7 4 6 6 5 5 8 15 11 7 8 9 5 7 11 10 14 17 20 22 23 23 23 23 21 20 19
4 4 3 4 4 4 4 4 3 3 3 3 4 3 3 3 5 6 8 8 7 7 4 10 4 5 6 7 8 8 7 11 13 13 15 20 22 21 22 22 21 18 17
3 2 2 3 3 4 5 4 4 4 4 4 5 4 4 4 5 5 7 7 6 8 6 5 1 2 6 8 8 7 5 6 12 9 12 15 18 17 18 20 22 21 19
2 1 1 3 3 3 4 6 4 4 2 1 2 2 3 5 5 6 3 4 4 5 4 1 1 2 4 9 8 9 10 7 10 14 11 9 14 17 18 21 22 21 20
2 1 3 3 4 4 5 4 4 3 2 1 1 1 3 4 4 4 4 3 5 4 4 4 5 4 4 5 8 10 8 4 2 11 6 1 6 15 18 19 22 21 17
3 3 4 3 4 3 4 5 5 4 2 2 2 2 1 3 3 3 3 2 5 2 3 4 5 6 6 5 6 4 3 3 5 10 3 4 5 5 15 18 18 19 18
5 5 4 4 3 4 5 6 4 4 3 4 1 3 3 2 2 4 3 4 3 5 3 3 4 4 4 4 5 7 7 7 11 11 10 6 9 13 12 12 11 16 17
5 6 6 6 5 4 5 6 3 3 2 2 2 2 2 1 3 5 4 3 2 3 3 2 2 2 4 3 3 6 12 12 12 13 17 6 9 7 11 14 12 24 28
5 7 7 6 6 7 5 6 3 3 3 3 4 4 4 3 2 3 4 3 3 2 1 1 2 3 4 2 4 9 11 14 12 12 18 26 28 28 28 28 29 25 23
5 8 7 6 6 6 6 5 3 4 4 5 7 6 5 6 4 2 2 2 3 1 2 1 2 2 3 4 5 9 16 17 15 16 18 22 26 25 30 25 25 28 24
6 8 9 7 7 6 6 5 3 5 6 7 8 6 5 5 5 4 3 3 2 5 3 2 2 2 3 3 12 18 12 21 22 20 21 22 23 26 26 30 26 25 23
6 7 8 8 7 6 6 6 5 7 7 7 6 6 6 6 6 5 4 3 4 4 5 3 2 3 5 6 10 10 10 21 22 21 22 23 24 24 26 24 29 24 21
6 7 8 8 7 7 7 7 6 7 7 4 4 6 5 4 5 5 5 4 5 5 3 1 2 2 7 6 12 10 13 18 21 22 22 22 22 23 22 23 26 22 17
6 7 7 7 7 7 7 6 7 7 7 6 5 5 6 6 4 4 4 5 6 5 3 2 3 5 6 9 10 9 10 9 11 21 22 22 23 23 24 22 19 18 16
6 7 7 7 7 7 7 7 7 5 5 5 4 5 7 5 7 6 5 6 7 7 3 8 5 4 8 7 11 12 10 9 10 19 21 22 23 21 21 19 18 17 15
6 6 5 7 7 7 6 6 5 6 6 4 6 6 7 6 5 4 7 6 7 6 6 8 7 6 6 8 12 10 9 11 9 20 21 20 21 21 19 18 17 15 15
6 6 5 6 6 6 6 5 5 3 4 5 5 5 5 5 8 9 8 7 8 9 10 10 9 9 9 5 7 9 9 8 8 9 17 16 18 21 20 18 17 16 15
5 5 6 6 5 4 3 4 4 3 5 6 5 2 3 7 7 9 7 8 11 11 9 10 9 9 9 9 8 6 9 9 9 6 10 8 8 9 9 15 13 12 12
6 5 5 6 5 3 6 5 3 3 4 4 5 4 3 10 8 12 20 16 12 14 11 9 9 10 7 9 7 6 8 8 8 5 8 9 7 8 9 9 13 11 10
6 6 5 4 4 4 5 4 5 3 4 4 4 4 4 6 8 8 15 17 17 15 15 12 13 10 10 11 10 7 6 7 8 7 8 9 5 9 7 10 18 18 12
5 5 3 3 3 4 6 6 6 3 3 4 5 5 4 5 5 8 11 10 12 11 9 7 10 9 9 9 8 8 10 10 8 6 3 6 3 6 5 7 15 18 19
5 4 2 4 3 4 9 9 5 4 5 7 7 8 5 6 7 10 11 11 11 10 11 13 13 14 13 11 7 8 9 8 7 3 3 4 2 3 3 5 6 15 15
4 2 3 4 7 5 9 9 3 3 4 4 6 7 12 5 7 10 10 10 11 9 12 11 9 9 8 9 7 5 8 8 6 5 2 3 3 1 4 3 7 7 6
Wind_Direction
320 320 345 337 330 327 318 303 295 300 315 326 333 345 318 323 320 316 293 316 325 314 305 296 300 282 266 250 247 235 221 218 218 213 207 211 209 210 206 198 196 198 195
19 15 3 359 351 336 314 297 298 296 272 281 255 315 308 300 306 304 297 304 322 320 303 300 297 286 266 253 245 240 224 216 219 215 215 214 203 212 209 203 198 197 198
56 47 29 7 345 340 334 336 317 285 301 300 306 306 309 311 302 310 305 304 314 318 306 287 291 293 299 284 246 234 229 215 217 216 218 218 213 208 207 206 202 199 195
81 51 18 342 327 321 313 308 298 291 278 274 276 284 290 289 297 295 296 303 304 301 296 287 276 305 321 329 317 268 241 240 223 221 215 220 217 210 206 209 205 201 196
48 30 355 328 335 322 311 305 295 263 277 274 264 267 288 298 299 309 295 291 286 276 264 272 274 308 320 328 320 333 315 321 265 235 220 223 219 213 205 206 206 209 197
46 33 338 337 339 333 321 311 263 269 256 265 282 288 289 286 287 294 293 292 283 287 281 226 276 316 323 323 318 295 335 268 296 277 243 218 219 214 214 207 209 210 202
1 341 301 329 333 314 289 295 285 275 276 222 296 280 280 289 288 297 293 309 327 326 282 116 302 344 324 329 328 324 305 300 342 302 290 242 223 213 216 211 207 207 204
320 354 351 318 313 309 319 319 313 314 294 224 265 354 293 313 303 270 315 326 330 333 31 20 22 13 1 321 315 315 298 318 48 323 307 326 236 225 212 214 215 210 200
333 326 302 282 299 307 302 292 287 258 266 273 222 240 270 261 323 319 334 1 339 12 19 8 13 352 354 342 320 314 352 212 161 175 239 232 209 216 214 207 213 206 180
308 300 294 280 283 294 283 274 261 251 220 253 308 230 230 207 226 310 322 321 351 357 9 17 17 0 1 1 9 42 60 82 81 70 59 250 203 204 201 199 194 180 164
313 318 320 304 290 273 269 267 246 242 250 280 234 267 252 269 230 231 278 309 341 19 11 9 27 23 356 15 34 52 60 73 73 66 63 72 203 210 198 143 162 148 135
314 312 303 289 276 274 267 278 236 229 221 239 253 246 234 224 224 203 230 255 277 323 343 9 22 35 16 328 113 93 77 75 68 65 71 75 80 86 89 105 108 106 119
299 294 290 281 270 270 279 267 238 247 255 252 254 253 232 234 234 230 191 227 252 277 274 60 29 44 58 38 71 87 101 84 70 71 72 81 90 97 101 90 102 103 92
279 280 288 287 291 286 284 265 257 262 262 254 249 242 250 238 222 220 205 168 219 244 227 200 70 60 39 85 97 83 84 92 86 78 78 78 85 92 94 103 94 87 100
281 291 294 289 289 291 282 268 266 262 264 252 245 248 248 245 225 223 217 188 211 222 205 188 131 65 88 86 89 85 81 79 80 81 83 84 84 85 92 91 92 87 89
279 295 300 295 291 296 292 278 269 267 263 249 244 250 253 250 234 224 223 189 214 237 191 179 92 130 103 87 90 83 85 82 82 85 83 84 85 86 88 88 90 101 109
293 300 301 300 300 298 293 287 276 276 266 264 245 257 260 248 236 221 207 206 205 219 246 131 93 99 79 95 86 72 70 72 78 82 84 81 81 80 80 81 93 100 107
301 298 305 304 294 292 293 289 291 296 286 272 261 261 269 266 251 223 218 214 201 205 187 128 99 97 89 90 92 85 80 73 75 77 79 79 81 82 86 90 91 93 90
302 300 301 301 302 304 301 299 295 284 282 280 280 288 289 270 261 233 221 231 194 171 139 121 115 100 89 95 95 87 83 82 76 78 78 81 85 86 85 87 88 91 91
303 303 301 302 307 307 300 296 306 307 311 301 302 276 272 268 261 253 213 181 151 121 119 113 113 110 111 98 93 101 88 72 71 64 66 69 75 76 77 83 84 89 91
298 302 305 313 311 303 299 310 298 322 337 325 308 313 306 330 69 24 153 137 129 119 122 119 117 113 111 110 102 99 98 99 76 76 87 61 64 67 54 58 68 83 92
309 310 312 321 313 310 322 321 305 346 332 329 332 348 356 29 24 35 93 97 124 126 117 119 120 124 116 119 121 119 119 122 99 65 81 75 61 62 56 57 61 66 88
314 313 314 322 323 327 353 349 332 5 332 331 350 8 29 40 26 75 85 87 96 96 122 133 132 137 138 148 140 136 110 98 105 118 104 81 61 69 54 56 52 53 56
324 317 330 350 20 26 11 359 340 344 360 18 39 26 51 40 43 86 98 86 88 103 114 126 133 138 127 136 127 113 115 108 111 106 91 89 59 71 62 60 54 55 56
327 338 4 18 47 26 7 351 358 27 62 59 45 33 28 59 81 91 101 100 95 91 91 91 102 108 103 100 111 123 125 122 115 100 63 104 96 92 60 54 48 48 53
319 323 51 53 44 17 355 351 35 52 60 56 55 48 38 57 87 101 118 121 116 117 117 109 110 102 93 112 95 117 143 133 123 103 125 98 131 138 103 44 43 39 64